• In Hungary
  • List of Countries
  • For 7 days
  • Water Temperature
  • Satellite Maps
  • Weather Map
  • News
  • Weather Widgets
  • user-avatar
    Login

    Hourly Weather Boronatovo

    Today, 25 May, Friday

    Time Temperature Precipitation Wind Pressure Humidity
    00:00 +9°C° 0 mm 2 mps 754 mmHg 70%
    01:00 +8°C° 0 mm 2 mps 754 mmHg 69%
    02:00 +7°C° 0 mm 2 mps 754 mmHg 68%
    03:00 +7°C° 0 mm 2 mps 755 mmHg 66%
    04:00 +8°C° 0 mm 2 mps 755 mmHg 64%
    05:00 +8°C° 0 mm 2 mps 755 mmHg 62%
    06:00 +10°C° 0 mm 2 mps 756 mmHg 55%
    07:00 +13°C° 0 mm 2 mps 756 mmHg 48%
    08:00 +15°C° 0 mm 2 mps 756 mmHg 41%
    09:00 +16°C° 0 mm 2 mps 756 mmHg 39%
    10:00 +17°C° 0 mm 2 mps 757 mmHg 37%
    11:00 +18°C° 0 mm 2 mps 757 mmHg 35%
    12:00 +19°C° 0 mm 2 mps 756 mmHg 34%
    13:00 +19°C° 0 mm 2 mps 756 mmHg 34%
    14:00 +20°C° 0 mm 2 mps 756 mmHg 33%
    15:00 +20°C° 0 mm 2 mps 756 mmHg 35%
    16:00 +20°C° 0 mm 2 mps 756 mmHg 36%
    17:00 +21°C° 0 mm 1 mps 756 mmHg 38%
    18:00 +18°C° 0 mm 1 mps 756 mmHg 46%
    19:00 +15°C° 0 mm 1 mps 756 mmHg 53%
    20:00 +13°C° 0 mm 1 mps 756 mmHg 61%
    21:00 +12°C° 0 mm 1 mps 757 mmHg 63%
    22:00 +11°C° 0 mm 1 mps 757 mmHg 66%
    23:00 +11°C° 0 mm 1 mps 757 mmHg 68%

    Tomorrow, 26 May, Saturday

    Time Temperature Precipitation Wind Pressure Humidity
    00:00 +10°C° 0 mm 1 mps 758 mmHg 70%
    01:00 +10°C° 0 mm 1 mps 758 mmHg 71%
    02:00 +9°C° 0 mm 1 mps 758 mmHg 73%
    03:00 +9°C° 0 mm 2 mps 759 mmHg 71%
    04:00 +10°C° 0 mm 2 mps 759 mmHg 69%
    05:00 +10°C° 0 mm 2 mps 759 mmHg 68%
    06:00 +13°C° 0 mm 2 mps 759 mmHg 61%
    07:00 +16°C° 0 mm 2 mps 759 mmHg 54%
    08:00 +18°C° 0 mm 2 mps 759 mmHg 47%
    09:00 +19°C° 0 mm 2 mps 759 mmHg 44%
    10:00 +20°C° 0 mm 2 mps 759 mmHg 40%
    11:00 +23°C° 0 mm 2 mps 759 mmHg 36%
    12:00 +22°C° 0 mm 3 mps 758 mmHg 36%
    13:00 +24°C° 0 mm 3 mps 758 mmHg 36%
    14:00 +24°C° 0 mm 3 mps 758 mmHg 35%
    15:00 +24°C° 0 mm 3 mps 757 mmHg 37%
    16:00 +24°C° 0 mm 2 mps 757 mmHg 40%
    17:00 +23°C° 0 mm 2 mps 756 mmHg 42%
    18:00 +20°C° 0 mm 2 mps 756 mmHg 50%
    19:00 +18°C° 0 mm 2 mps 756 mmHg 59%
    20:00 +16°C° 0 mm 2 mps 756 mmHg 68%
    21:00 +15°C° 0 mm 2 mps 756 mmHg 70%
    22:00 +14°C° 0 mm 2 mps 756 mmHg 72%
    23:00 +13°C° 0 mm 2 mps 757 mmHg 74%

    Day after tomorrow, 27 May, Sunday

    Time Temperature Precipitation Wind Pressure Humidity
    00:00 +13°C° 0 mm 2 mps 756 mmHg 75%
    01:00 +12°C° 0 mm 2 mps 756 mmHg 76%
    02:00 +12°C° 0 mm 2 mps 756 mmHg 78%
    03:00 +12°C° 0 mm 2 mps 756 mmHg 76%
    04:00 +12°C° 0 mm 3 mps 756 mmHg 75%
    05:00 +13°C° 0 mm 3 mps 756 mmHg 73%
    06:00 +16°C° 0 mm 3 mps 755 mmHg 68%
    07:00 +17°C° 0 mm 3 mps 755 mmHg 62%
    08:00 +19°C° 0 mm 4 mps 755 mmHg 57%
    09:00 +21°C° 0 mm 4 mps 755 mmHg 53%
    10:00 +22°C° 0 mm 4 mps 754 mmHg 49%
    11:00 +23°C° 0 mm 4 mps 754 mmHg 45%
    12:00 +25°C° 0 mm 4 mps 754 mmHg 45%
    13:00 +25°C° 0 mm 4 mps 753 mmHg 44%
    14:00 +25°C° 0 mm 4 mps 753 mmHg 44%
    15:00 +23°C° 0 mm 4 mps 753 mmHg 46%
    16:00 +23°C° 0 mm 4 mps 753 mmHg 48%
    17:00 +22°C° 0 mm 3 mps 752 mmHg 50%
    18:00 +20°C° 0 mm 3 mps 753 mmHg 51%
    19:00 +18°C° 0 mm 3 mps 753 mmHg 52%
    20:00 +16°C° 0 mm 3 mps 753 mmHg 53%
    21:00 +13°C° 0 mm 3 mps 754 mmHg 55%
    22:00 +13°C° 0 mm 2 mps 754 mmHg 58%
    23:00 +10°C° 0 mm 2 mps 755 mmHg 60%

    28 May, Monday

    Time Temperature Precipitation Wind Pressure Humidity
    00:00 +10°C° 0 mm 2 mps 755 mmHg 62%
    01:00 +9°C° 0 mm 2 mps 756 mmHg 65%
    02:00 +8°C° 0 mm 2 mps 756 mmHg 67%
    03:00 +9°C° 0 mm 2 mps 757 mmHg 65%
    04:00 +9°C° 0 mm 2 mps 757 mmHg 62%
    05:00 +9°C° 0 mm 2 mps 758 mmHg 60%
    06:00 +12°C° 0 mm 2 mps 758 mmHg 54%
    07:00 +14°C° 0 mm 2 mps 758 mmHg 48%
    08:00 +15°C° 0 mm 2 mps 758 mmHg 42%
    09:00 +17°C° 0 mm 2 mps 758 mmHg 38%
    10:00 +18°C° 0 mm 2 mps 759 mmHg 34%
    11:00 +19°C° 0 mm 2 mps 759 mmHg 30%
    12:00 +19°C° 0 mm 2 mps 759 mmHg 29%
    13:00 +20°C° 0 mm 2 mps 758 mmHg 29%
    14:00 +21°C° 0 mm 2 mps 758 mmHg 28%
    15:00 +21°C° 0 mm 2 mps 758 mmHg 30%
    16:00 +21°C° 0 mm 1 mps 758 mmHg 33%
    17:00 +21°C° 0 mm 1 mps 758 mmHg 35%
    18:00 +19°C° 0 mm 1 mps 757 mmHg 42%
    19:00 +16°C° 0 mm 1 mps 757 mmHg 49%
    20:00 +13°C° 0 mm 0 mps 757 mmHg 57%
    21:00 +13°C° 0 mm 1 mps 758 mmHg 57%
    22:00 +13°C° 0 mm 1 mps 758 mmHg 58%
    23:00 +12°C° 0 mm 1 mps 758 mmHg 59%

    29 May, Tuesday

    Time Temperature Precipitation Wind Pressure Humidity
    00:00 +11°C° 0 mm 1 mps 758 mmHg 61%
    01:00 +11°C° 0 mm 1 mps 758 mmHg 62%
    02:00 +11°C° 0 mm 1 mps 758 mmHg 63%
    03:00 +10°C° 0 mm 2 mps 758 mmHg 63%
    04:00 +12°C° 0 mm 2 mps 758 mmHg 63%
    05:00 +12°C° 0 mm 2 mps 758 mmHg 63%
    06:00 +15°C° 0 mm 2 mps 758 mmHg 57%
    07:00 +17°C° 0 mm 2 mps 758 mmHg 51%
    08:00 +19°C° 0 mm 3 mps 758 mmHg 45%
    09:00 +21°C° 0 mm 3 mps 757 mmHg 42%
    10:00 +22°C° 0 mm 3 mps 757 mmHg 39%
    11:00 +24°C° 0 mm 3 mps 756 mmHg 35%
    12:00 +25°C° 0 mm 3 mps 756 mmHg 36%
    13:00 +25°C° 0 mm 4 mps 755 mmHg 36%
    14:00 +26°C° 0 mm 4 mps 754 mmHg 36%
    15:00 +26°C° 0 mm 4 mps 754 mmHg 39%
    16:00 +25°C° 0 mm 4 mps 753 mmHg 42%
    17:00 +25°C° 0 mm 4 mps 753 mmHg 45%
    18:00 +22°C° 0 mm 3 mps 752 mmHg 54%
    19:00 +20°C° 0 mm 3 mps 752 mmHg 62%
    20:00 +18°C° 0 mm 2 mps 751 mmHg 70%
    21:00 +17°C° 0 mm 2 mps 751 mmHg 73%
    22:00 +16°C° 0 mm 2 mps 751 mmHg 76%
    23:00 +15°C° 0 mm 2 mps 751 mmHg 79%

    30 May, Wednesday

    Time Temperature Precipitation Wind Pressure Humidity
    00:00 +15°C° 0 mm 2 mps 751 mmHg 78%
    01:00 +13°C° 0 mm 3 mps 750 mmHg 77%
    02:00 +13°C° 0 mm 3 mps 750 mmHg 75%
    03:00 +13°C° 0 mm 3 mps 750 mmHg 72%
    04:00 +14°C° 0 mm 3 mps 749 mmHg 69%
    05:00 +14°C° 0 mm 4 mps 749 mmHg 66%
    06:00 +17°C° 0 mm 4 mps 749 mmHg 61%
    07:00 +19°C° 0 mm 4 mps 748 mmHg 57%
    08:00 +21°C° 0 mm 4 mps 748 mmHg 53%
    09:00 +22°C° 0 mm 4 mps 748 mmHg 47%
    10:00 +25°C° 0 mm 5 mps 747 mmHg 42%
    11:00 +27°C° 0 mm 5 mps 747 mmHg 36%
    12:00 +27°C° 0 mm 5 mps 747 mmHg 35%
    13:00 +28°C° 0 mm 5 mps 746 mmHg 34%
    14:00 +28°C° 0 mm 5 mps 746 mmHg 33%
    15:00 +27°C° 0 mm 5 mps 746 mmHg 38%
    16:00 +26°C° 0 mm 4 mps 745 mmHg 44%
    17:00 +25°C° 0 mm 3 mps 745 mmHg 49%
    18:00 +22°C° 0 mm 3 mps 746 mmHg 49%
    19:00 +20°C° 0 mm 4 mps 746 mmHg 50%
    20:00 +18°C° 0 mm 4 mps 747 mmHg 50%
    21:00 +16°C° 0 mm 3 mps 747 mmHg 48%
    22:00 +12°C° 0 mm 3 mps 748 mmHg 47%
    23:00 +10°C° 0 mm 3 mps 749 mmHg 45%
    Show more